This is the latest recevied weather packets stored in our database for station/object K5KHP. If no packets are shown the sender has not sent any weather packets the latest 10 day(s).
| Time | Temp. | Humidity | Pressure | Rain* | Wind** | Luminosity | Snow |
|---|---|---|---|---|---|---|---|
| 1777754930 | 20° C | 76% | 1012.7 hPa | 0 mm | - | 611 W/m² | - |
| 1777754628 | 19.44° C | 76% | 1012.8 hPa | 0 mm | - | 672 W/m² | - |
| 1777754325 | 20° C | 75% | 1012.5 hPa | 0 mm | - | 464 W/m² | - |
| 1777754023 | 19.44° C | 77% | 1012.9 hPa | 0 mm | - | 673 W/m² | - |
| 1777753718 | 20° C | 77% | 1012.8 hPa | 0 mm | - | 712 W/m² | - |
| 1777753416 | 20° C | 76% | 1012.9 hPa | 0 mm | - | 678 W/m² | - |
| 1777753113 | 20° C | 77% | 1012.8 hPa | 0 mm | - | 570 W/m² | - |
| 1777752809 | 20° C | 75% | 1012.7 hPa | 0 mm | - | 637 W/m² | - |
| 1777752506 | 20° C | 77% | 1012.9 hPa | 0 mm | - | 530 W/m² | - |
| 1777752201 | 20° C | 75% | 1012.8 hPa | 0 mm | - | 543 W/m² | - |
| 1777751900 | 20° C | 76% | 1012.9 hPa | 0 mm | - | 627 W/m² | - |
| 1777751596 | 20° C | 76% | 1013.1 hPa | 0 mm | - | 641 W/m² | - |
| 1777751293 | 20.56° C | 76% | 1013.2 hPa | 0 mm | - | 622 W/m² | - |
| 1777750990 | 20° C | 76% | 1013.3 hPa | 0 mm | - | 598 W/m² | - |
| 1777750685 | 20° C | 76% | 1013.3 hPa | 0 mm | - | 638 W/m² | - |
| 1777750383 | 20° C | 76% | 1013.4 hPa | 0 mm | - | 357 W/m² | - |
| 1777750078 | 19.44° C | 78% | 1013.4 hPa | 0 mm | - | 667 W/m² | - |
| 1777749776 | 19.44° C | 78% | 1013.4 hPa | 0 mm | - | 596 W/m² | - |
| 1777749472 | 19.44° C | 78% | 1013.5 hPa | 0 mm | - | 380 W/m² | - |
| 1777749170 | 20° C | 78% | 1013.4 hPa | 0 mm | - | 662 W/m² | - |
| 1777748867 | 19.44° C | 78% | 1013.6 hPa | 0 mm | - | 572 W/m² | - |
| 1777748564 | 20° C | 77% | 1013.5 hPa | 0 mm | - | 509 W/m² | - |
| 1777748259 | 20° C | 77% | 1013.6 hPa | 0 mm | - | 580 W/m² | - |
| 1777747956 | 19.44° C | 78% | 1013.5 hPa | 0 mm | - | 620 W/m² | - |
| 1777747652 | 19.44° C | 77% | 1013.6 hPa | 0 mm | - | 540 W/m² | - |
* Rain latest hour (hover to see other rain measurements)
** Current wind speed in m/s (hover to see current wind gust speed)